Back to catalog

BREEZE-M DEB

TANK

AliveHEO
NORAD 39010·DEBRIS·🇷🇺 Russia

Launched Nov 20, 2012 from Baikonur Cosmodrome

Loading…

Next Passes (next 24 hours)

TLE

FreshSource: Space-Track

Epoch: Sep 14, 2026, 06:04 UTC

1 39010U 12065C   26257.25307132  .00002175  00000-0  50971-3 0  9992
2 39010  49.6803  65.2084 4561532 223.0814  90.5790  6.32427196309749

Track BREEZE-M DEB in real time with AllMySat

Download on the App Store